Location: Waldport
(44.4270°N, 124.0680°W)
Time: 19:32:36
(UTC-07:00)

Daily predictions for brighter satellites

Satellite Brightness Start Highest point End
(mag) Time Altitude Azimuth Time Altitude Azimuth Time Altitude Azimuth
USA 234 4.1 19:26:29 10° SSE 19:32:51 53° SW 19:39:15 10° WNW
Cosmos 1271 Rocket 2.9 19:33:33 10° SSW 19:37:19 80° W 19:41:11 10° N
BREEZE M DEB (TANK) 3.8 19:27:24 10° WNW 19:38:07 80° NNE 19:41:31 10° ESE
ALOS 2.2 19:37:30 10° SSE 19:42:09 75° ENE 19:46:50 10° N
Envisat 4.4 19:39:28 10° ESE 19:42:53 19° ENE 19:46:19 10° NNE
Geosat 4.0 19:38:03 10° SE 19:43:02 68° ENE 19:48:03 10° NNW
COSMO-SKYMED 1 3.1 19:40:15 10° N 19:44:35 67° WNW 19:48:52 10° SSW
USA 81 4.1 19:42:26 10° N 19:47:42 65° E 19:52:56 10° SSE
FREGAT/IRIS 2.9 19:45:14 10° SSE 19:48:09 46° ENE 19:51:05 10° N
Cosmos 2150 Rocket 4.2 19:43:04 10° NNW 19:48:26 81° WSW 19:53:50 10° SSE
Cosmos 1758 Rocket 3.8 19:46:01 10° NNW 19:50:32 77° W 19:55:01 10° S
Cosmos 1340 Rocket 3.4 19:47:24 10° NNW 19:51:27 64° W 19:55:29 10° S
Cosmos 389 Rocket 3.1 19:48:07 10° SSW 19:51:35 59° WNW 19:55:01 10° N
Cosmos 1726 Rocket 3.7 19:52:11 10° S 19:56:31 81° W 20:00:53 10° N
Cosmos 841 Rocket 3.4 19:54:03 10° S 19:59:09 68° ESE 20:04:16 10° NNE
ATLAS 2AS CENTAUR R/B 4.1 19:54:11 10° NNW 20:01:06 29° NNE 20:07:05 12° E
Cosmos 2084 3.3 19:57:26 10° SW 20:01:30 84° NW 20:05:24 10° NE
Cosmos 1937 Rocket 4.3 19:56:43 10° NNW 20:01:55 55° WSW 20:07:02 10° S
CZ-2D R/B 4.1 19:59:06 10° SE 20:02:28 30° ENE 20:05:50 10° N
Cosmos 2181 Rocket 4.3 19:58:36 10° NNW 20:04:47 72° W 20:10:52 10° S
HJ-1C 3.4 20:05:03 10° SSE 20:08:19 56° ENE 20:11:38 10° N
Resurs 1-3 4.4 20:05:33 12° SE 20:09:05 31° ENE 20:12:56 10° N
NOSS 3-1 (A) 4.1 20:03:36 10° NW 20:11:12 86° NE 20:19:38 10° SE
Cosmos 540 Rocket 3.6 20:10:42 10° S 20:15:34 47° ESE 20:20:29 10° NNE
Cosmos 1943 Rocket 4.2 20:11:47 10° NW 20:16:36 30° WSW 20:21:24 10° SSW
Cosmos 2154 Rocket 4.4 20:11:56 10° SSE 20:17:36 39° E 20:23:20 10° NNE
Cosmos 1763 Rocket 4.0 20:13:16 10° SSW 20:18:20 64° WNW 20:23:31 10° NNE
Cosmos 2074 Rocket 3.9 20:13:24 10° S 20:19:34 76° E 20:25:47 10° N
NOSS 3-1 (C) 4.4 20:12:10 10° NW 20:19:43 70° WSW 20:28:05 10° SSE
Cosmos 2228 3.5 20:17:25 10° SSW 20:21:45 65° W 20:26:04 10° N
Meteor 1-24 Rocket 3.8 20:18:15 10° N 20:24:16 88° E 20:30:04 10° S
SJ-6B 2.9 20:21:01 10° S 20:25:00 80° WSW 20:28:57 10° NNW
Cosmos 1953 3.3 20:28:52 26° E 20:28:58 26° E 20:32:24 10° NNE
Cosmos 1356 Rocket 4.1 20:27:22 10° NNW 20:31:37 60° W 20:35:51 10° S
Resurs 01 Rocket 1.7 20:29:30 15° SSE 20:33:00 57° ENE 20:37:21 10° N
Cosmos 1697 Rocket 4.2 20:30:14 10° N 20:34:19 20° NE 20:35:54 18° ENE
GP-B 3.3 20:30:20 10° NNE 20:34:39 49° E 20:38:34 12° SSE
Cosmos 1980 Rocket 4.1 20:32:39 10° N 20:35:24 14° NE 20:36:53 12° ENE
H-2A R/B 3.6 20:32:30 10° S 20:36:07 49° W 20:39:48 10° NNW
Cosmos 1812 Rocket 3.6 20:31:47 10° S 20:36:09 58° E 20:40:33 10° NNE
BREEZE-M DEB (TANK) 4.0 20:33:01 10° WNW 20:36:56 59° NNE 20:45:43 19° E
USA 186 3.0 20:39:45 21° NNE 20:39:45 21° NNE 20:40:45 10° N
Elektron 1 3.6 20:37:58 10° NW 20:41:21 79° NE 20:41:58 51° ESE
Nadezhda 3 Rocket 3.9 20:40:25 10° N 20:46:44 69° E 20:52:39 11° SSE
Spot 2 Rocket 3.4 20:45:18 19° SSE 20:48:59 72° ENE 20:54:01 10° N
Meteor 2-8 Rocket 4.5 20:43:26 10° N 20:49:35 81° W 20:55:41 10° S
YAOGAN 6 3.9 20:54:54 27° NE 20:54:54 27° NE 20:57:06 10° N
ISS -2.0 20:51:01 10° SSW 20:52:27 21° SSW 20:52:27 21° SSW
ATLAS CENTAUR R/B 4.4 20:42:15 10° NW 20:55:01 46° WSW 20:59:19 13° S
Cosmos 292 Rocket 3.9 20:52:05 10° S 20:56:46 51° ESE 21:01:29 10° NNE
Cosmos 2285 Rocket 4.4 20:52:06 10° SSE 20:57:55 38° E 21:03:45 10° NE
Cosmos 1766 4.4 20:54:11 10° SSW 20:57:56 44° WNW 21:01:43 10° N
Cosmos 1544 4.0 20:55:40 10° SSW 20:59:09 47° WNW 21:02:39 10° N
Okean 3 Rocket 3.6 20:57:03 10° N 21:01:27 54° ENE 21:01:46 53° E
Cosmos 1356 3.8 20:59:19 10° NNW 21:02:47 62° W 21:03:50 39° SSW
Helios 1A 4.2 21:03:50 27° NE 21:03:50 27° NE 21:06:28 10° N
Meteor 2-19 Rocket 4.4 20:57:37 10° S 21:03:41 84° W 21:09:46 10° N
ARGOS 4.5 21:05:35 23° NE 21:05:35 23° NE 21:09:19 10° N
Cosmos 783 Rocket 4.3 21:02:19 10° SSW 21:07:30 74° ESE 21:12:42 10° NNE
Cosmos 1674 2.5 21:04:16 10° N 21:07:54 80° NE 21:07:54 80° NE
COSMOS 2406 3.9 21:04:49 10° SW 21:10:25 56° WNW 21:16:05 10° NNE
Cosmos 1295 Rocket 4.4 21:05:44 15° S 21:10:50 62° E 21:16:50 10° NNE
ERS-1 Rocket 4.1 21:12:03 28° NE 21:12:03 28° NE 21:15:36 10° N
Cosmos 1758 3.3 21:10:49 26° SSW 21:13:01 79° W 21:17:02 10° N
Cosmos 1125 Rocket 4.4 21:08:27 10° NNW 21:13:32 48° WSW 21:17:45 15° S
Cosmos 1809 Rocket 4.4 21:14:58 39° SSE 21:17:02 58° E 21:23:02 10° NNE
BREEZE M DEB (TANK) 3.2 21:15:44 10° WNW 21:19:52 34° NNW 21:19:52 34° NNW
SL-8 Rocket 4.0 21:20:05 51° ESE 21:20:47 54° E 21:26:46 10° NNE
Envisat 3.3 21:18:25 24° S 21:21:24 63° WSW 21:26:29 10° NNW
Cosmos 2369 3.6 21:16:43 10° NNW 21:22:23 68° ENE 21:23:09 60° ESE
Meteor 1-21 Rocket 4.3 21:19:19 10° NNW 21:25:05 79° W 21:27:29 36° S
Cosmos 1939 Rocket 3.1 21:26:42 66° NW 21:26:42 66° NW 21:30:16 10° NNW
MOS 1-B Rocket 4.4 21:24:14 14° S 21:29:26 57° WSW 21:35:01 10° NNW
Meteor 2-15 4.3 21:27:01 10° N 21:33:06 76° E 21:34:03 63° SE
SJ-11-01 4.4 21:33:58 66° SW 21:34:26 72° WSW 21:39:11 10° NNW
H-2A R/B 3.6 21:39:56 22° NNE 21:39:56 22° NNE 21:42:15 10° N
Meteor 2-14 Rocket 4.4 21:39:31 61° ENE 21:39:31 61° ENE 21:45:07 10° NNE
Meteor 2-21 Rocket 4.3 21:44:05 72° E 21:44:05 72° E 21:50:05 10° NNE
Cosmos 1076 Rocket 4.2 21:41:00 10° NNW 21:44:39 53° NW 21:44:39 53° NW
ATLAS 2AS CENTAUR R/B 2.8 21:45:17 10° NW 21:53:23 81° NE 21:54:31 67° ESE
Cosmos 2278 3.8 21:51:17 10° NNW 21:56:56 69° WSW 21:56:56 69° WSW
Cosmos 2322 Rocket 4.0 22:05:18 10° N 22:08:01 20° NNE 22:08:01 20° NNE
Resurs 01 Rocket 4.4 22:07:20 10° SW 22:09:51 15° W 22:12:21 10° NW
Cosmos 1697 Rocket 3.3 22:13:18 10° NNW 22:17:38 53° NW 22:17:38 53° NW
Cosmos 1656 4.4 22:13:42 10° NNW 22:18:26 51° WNW 22:18:26 51° WNW
Cosmos 1980 Rocket 3.2 22:14:56 10° NNW 22:18:39 41° N 22:18:39 41° N
USA 267 4.4 22:19:51 30° NE 22:21:13 33° NNE 22:26:52 10° NW
BREEZE-M DEB (TANK) 4.3 22:15:53 10° W 22:20:12 34° W 22:20:12 34° W
FALCON 9 R/B 4.3 22:22:44 10° WSW 22:23:54 18° SW 22:23:54 18° SW
SL-16 R/B 4.0 22:42:20 10° NNW 22:44:51 24° N 22:44:51 24° N
H-2A R/B 4.5 23:20:34 18° NW 23:20:34 18° NW 23:21:57 10° NNW
